Location: New Plymouth
(39.0670°S, 174.0830°E)
Time: 20:34:15
(UTC+12:00)

Cosmos 1869 Rocket - Pass Details

Date: 24 January 2019
Orbit: 604 x 634 km, 82.5° (Epoch: 21 April)

Event Time Altitude Azimuth Distance (km) Brightness Sun altitude
Rises 22:28:56 0° 181° (S) 2,917 7.7 -17.2°
Reaches altitude 10° 22:31:17 10° 174° (S) 1,998 6.7 -17.5°
Maximum altitude 22:35:31 44° 101° (E) 858 4.0 -18.1°
Enters shadow 22:36:30 37° 65° (ENE) 955 4.0 -18.2°
